Location: Capannuccia
(43.7000°N, 11.3000°E)
Time: 18:45:57
(UTC+00:00)

CZ-2D R/B - Pass Details

Date: 07 June 2020
Orbit: 791 x 846 km, 98.7° (Epoch: 06 July)

Event Time Altitude Azimuth Distance (km) Brightness Sun altitude
Rises 02:05:54 0° 2° (N) 3,307 6.2 -12.7°
Reaches altitude 10° 02:08:36 10° 350° (N) 2,369 5.1 -12.4°
Maximum altitude 02:12:45 25° 297° (WNW) 1,568 3.5 -11.9°
Enters shadow 02:16:21 12° 248° (WSW) 2,192 3.8 -11.4°
